Zurück zum Katalog

STARLINK-37173

AktivKommunikationVLEO
NORAD 68536·PAYLOAD·🇺🇸 United States

Gestartet Mar 30, 2026 von Cape Canaveral Space Force Station

Loading…

Nächste Überflüge (nächste 24 Stunden)

TLE

AktuellSource: CelesTrak SupGP

Epoche: Sep 14, 2026, 21:36 UTC

1 68536C 26068AE  26257.90048611 -.00003891  00000+0 -11499-3 0  2577
2 68536  53.1566 320.1791 0001210  95.2570  50.8538 15.34380934    11

Verfolge STARLINK-37173 in Echtzeit mit AllMySat

Download on the App Store